Theta_e
303 304 306 305 303 303 303 303 303 303 303 303 303 304 304 304 305 305 305 305 306 306 306 307 307 308 309 309 315 319 319 318 317 317 320 323 321 320 319 320 320 324 330 331 333 340 344 346 346 347 347 346 345 344 347 346 345 346 348 342 332 333 334 336 342 341 342 344 345 347 346 348 349 348 348 347 348 347 347 348 347 348 348 347 350 352 352 353
307 303 304 306 305 303 303 303 303 303 303 303 303 304 304 304 305 305 305 305 306 306 306 307 307 308 308 309 315 318 318 318 318 320 323 323 324 322 319 318 319 322 327 330 335 341 342 343 345 346 345 344 342 342 347 347 344 345 344 340 336 338 337 336 340 340 342 344 346 347 346 347 348 348 348 348 349 347 348 350 350 350 350 350 351 353 353 353
310 307 304 304 306 304 303 303 303 303 303 303 303 304 304 304 304 305 305 305 306 306 307 307 307 308 308 310 316 317 317 320 321 321 323 325 324 322 321 318 319 321 324 327 332 336 338 342 346 346 344 340 336 340 345 345 344 342 340 341 342 341 337 336 338 338 341 345 347 347 346 347 347 347 347 347 349 347 348 350 350 351 350 350 350 353 353 352
311 310 306 303 305 306 304 303 303 303 303 303 303 304 304 304 304 304 305 305 306 306 307 307 307 308 308 312 316 316 318 323 321 319 323 325 322 321 322 320 319 321 322 323 327 329 331 340 346 343 340 334 330 338 341 342 344 341 340 344 343 339 338 337 336 337 341 345 346 346 346 347 347 346 346 347 348 348 348 348 349 350 351 350 349 352 354 353
310 311 309 304 303 306 306 303 303 303 303 303 303 304 304 304 305 305 305 305 306 307 307 308 308 308 308 313 316 317 320 322 318 320 322 323 322 322 323 323 321 321 322 322 324 325 326 338 341 335 333 330 329 334 337 340 341 339 341 344 341 338 338 337 335 337 342 344 346 346 346 347 347 345 345 347 348 346 346 346 348 349 350 350 350 352 353 353
309 309 309 307 303 304 306 304 302 303 303 303 303 304 304 304 304 305 305 305 306 307 307 308 309 308 309 314 318 319 320 320 320 322 322 322 324 324 325 325 324 323 322 323 324 323 326 334 334 329 329 328 330 332 332 335 336 338 339 339 339 337 338 337 335 339 343 344 346 346 346 347 347 346 345 345 345 343 343 345 348 349 351 351 352 352 351 351
308 308 308 309 305 303 306 305 303 303 303 303 303 304 304 304 304 305 305 305 306 307 308 309 309 309 311 316 320 320 320 321 322 322 322 322 322 325 326 325 325 324 323 324 324 323 325 330 329 327 328 326 329 331 330 330 332 338 337 334 335 336 338 335 335 340 342 345 345 345 346 346 347 347 345 344 343 343 343 345 349 352 353 352 352 351 350 351
309 308 308 308 307 304 304 305 303 302 303 303 303 303 304 304 305 305 305 306 306 308 310 310 310 312 314 317 321 319 318 321 322 322 322 321 321 323 325 328 329 326 324 324 325 323 324 326 326 325 326 325 327 329 329 328 330 334 336 333 332 335 336 335 336 340 343 344 345 345 346 347 347 346 345 343 343 344 345 347 350 352 351 351 350 350 351 352
309 308 308 308 308 305 303 304 303 302 302 303 303 304 304 304 305 305 306 307 307 309 312 311 312 315 316 317 318 318 321 321 321 323 322 321 322 323 324 330 332 327 323 324 324 324 323 323 323 324 325 325 327 330 328 329 330 331 333 331 330 334 336 335 337 340 343 343 345 346 348 348 345 345 346 344 345 347 348 349 350 351 350 351 350 350 352 352
308 308 308 309 308 304 303 304 303 302 302 303 303 304 304 304 305 305 306 307 308 312 314 314 315 316 317 318 318 320 324 320 322 323 322 322 322 323 323 328 331 326 323 323 323 323 323 322 323 324 326 327 328 328 326 328 328 327 330 331 331 334 336 336 337 340 342 343 345 347 348 347 344 346 347 344 347 348 350 351 351 351 351 351 350 351 354 353
308 308 308 309 308 304 303 304 303 302 302 303 303 304 304 305 305 306 307 308 311 315 316 317 316 317 317 320 320 323 324 321 323 323 322 322 321 322 323 326 329 325 322 322 322 323 323 322 324 325 326 327 328 327 325 325 325 327 333 338 336 336 336 336 338 340 342 343 345 347 348 347 345 347 348 346 348 349 351 353 352 352 352 352 351 351 355 355
308 308 308 309 308 305 304 304 303 302 303 302 303 304 304 305 306 308 308 311 316 319 321 319 317 318 319 319 320 324 324 323 324 323 323 323 323 323 323 325 326 324 323 322 322 323 323 323 325 326 326 327 328 327 326 325 326 333 338 341 339 339 338 337 339 340 341 344 345 346 345 346 349 347 348 347 348 350 351 353 353 352 353 352 353 352 353 355
308 308 307 308 308 306 304 304 303 302 302 303 303 304 304 306 308 308 310 317 322 323 322 319 318 320 321 321 322 324 325 325 325 325 325 325 324 323 323 324 325 323 323 323 324 324 322 324 325 325 325 326 328 325 327 330 331 338 341 340 341 338 338 340 340 340 343 343 344 344 335 340 351 347 347 349 348 351 352 354 353 353 353 353 353 352 353 354
308 307 307 308 307 306 304 304 303 302 302 303 303 303 305 307 308 310 316 323 324 323 320 318 320 321 321 322 325 326 326 326 326 326 326 327 325 323 324 324 323 324 323 323 324 323 323 325 324 323 323 325 326 324 329 336 336 341 340 340 341 332 333 343 341 340 345 343 345 343 330 335 350 347 348 350 348 351 352 354 354 353 353 353 354 353 353 354
307 307 307 307 307 306 305 303 302 302 302 303 303 304 306 307 310 316 323 325 323 321 320 320 321 323 324 324 325 324 325 326 325 326 326 327 325 322 323 324 324 324 324 324 322 322 322 323 323 321 322 323 323 326 335 338 339 343 332 330 338 330 333 347 343 341 347 343 345 342 331 337 348 346 348 350 348 351 352 353 353 352 353 353 353 353 353 354
307 307 307 306 306 305 304 303 302 301 302 302 304 305 306 310 318 323 324 323 321 320 321 323 323 324 325 324 325 323 325 326 325 325 324 325 325 322 322 323 324 323 323 324 321 321 321 322 323 321 322 323 323 330 337 333 335 341 331 325 331 331 333 343 343 343 346 345 346 342 337 342 347 346 349 350 349 350 352 353 353 352 353 353 353 353 353 354
307 307 307 306 306 304 303 303 302 302 302 303 305 305 308 317 324 324 323 321 321 322 323 325 325 324 324 322 325 324 325 326 324 323 323 324 325 322 321 321 322 322 321 321 321 321 321 322 321 320 322 322 326 333 329 323 324 331 333 330 332 334 334 336 341 345 345 346 346 345 344 345 348 349 349 351 350 350 352 353 353 352 352 353 353 353 353 354
307 307 307 306 306 304 303 302 302 302 302 305 306 305 314 323 325 323 323 323 322 323 324 324 324 324 322 322 324 323 323 323 321 321 322 324 324 322 320 320 319 320 321 319 320 321 320 321 321 321 322 321 328 332 322 320 326 326 327 328 329 335 335 335 340 345 346 347 346 346 345 346 349 350 350 352 351 350 352 353 352 353 353 353 354 353 353 354
306 307 307 306 306 304 303 302 302 302 304 307 305 307 318 324 323 323 324 324 322 324 326 325 326 324 320 322 322 321 320 320 321 321 323 325 323 321 319 319 319 320 321 319 320 320 320 321 320 319 320 320 326 330 325 328 334 332 331 331 328 329 334 340 344 344 348 348 347 347 345 346 350 350 351 352 352 352 352 353 353 353 353 353 354 353 354 354
306 307 307 306 306 304 302 302 301 302 305 307 304 307 317 319 319 321 320 320 319 319 319 320 323 322 321 321 320 320 320 320 322 322 324 324 322 322 319 317 318 319 319 320 319 319 320 320 320 319 320 322 324 327 328 333 339 338 336 334 332 330 332 343 345 343 348 347 346 349 347 347 350 350 351 351 353 354 353 354 355 354 354 354 354 354 354 354
306 307 307 306 305 303 302 302 301 303 307 305 303 307 311 312 314 314 312 314 314 315 316 316 318 318 318 319 318 320 320 320 321 323 324 324 322 324 322 317 319 320 318 319 318 319 319 318 319 321 322 323 323 324 326 331 339 340 335 332 332 331 333 342 344 343 347 346 345 349 348 347 351 351 350 351 353 354 353 354 354 354 354 354 355 354 354 354
306 307 306 305 304 303 302 302 301 306 308 304 305 308 308 309 310 310 310 311 312 313 314 314 315 315 316 317 318 318 319 319 320 321 324 323 323 324 323 318 320 322 318 317 319 318 318 318 320 322 321 322 324 323 324 330 339 339 335 331 328 330 333 336 341 344 346 345 344 348 346 345 350 351 350 351 352 354 353 353 353 353 354 354 354 354 354 354
306 306 305 305 304 303 302 301 304 309 307 304 306 308 308 309 307 307 310 310 312 313 312 314 314 314 316 317 318 318 317 319 319 320 322 323 323 323 323 320 321 321 317 317 320 317 315 317 321 320 319 322 324 323 324 328 334 336 333 327 325 330 331 327 333 344 345 343 344 346 344 344 349 351 351 350 350 352 352 351 351 351 353 353 352 353 353 353
306 306 305 305 303 303 302 301 306 308 304 304 306 308 309 308 306 307 310 311 313 314 314 315 314 315 317 317 318 318 318 320 319 320 322 323 323 322 323 322 321 320 318 318 319 317 317 318 320 319 319 323 323 324 325 324 327 332 333 329 326 331 333 331 335 343 343 341 345 344 336 337 346 350 352 351 349 350 350 350 351 350 350 351 351 351 352 352
305 305 304 304 303 303 301 302 307 305 303 305 307 309 309 306 306 307 311 315 315 316 317 316 316 317 318 319 319 320 320 320 320 321 323 324 323 322 322 321 322 323 320 317 317 318 319 318 318 319 320 322 324 325 326 323 321 324 330 332 331 333 335 336 339 338 332 331 340 341 328 329 343 349 351 352 352 351 350 351 350 350 350 349 350 350 350 350
304 303 303 303 303 304 303 304 306 303 304 307 307 309 308 305 307 307 312 318 317 318 321 318 319 319 320 321 319 320 321 321 323 322 323 325 323 323 324 321 322 324 319 317 318 318 318 319 318 320 320 322 324 324 325 326 320 317 325 330 331 334 333 334 336 331 324 326 339 342 328 325 334 343 351 354 354 354 352 351 350 350 351 349 348 348 348 349
303 302 302 302 304 304 307 307 304 304 306 307 306 307 306 306 307 308 315 317 315 320 323 319 320 321 320 322 321 321 319 318 323 323 323 324 323 323 324 323 323 321 317 318 318 317 318 319 318 320 321 321 322 322 326 328 321 318 326 328 330 333 332 335 335 327 327 331 337 341 333 325 325 335 351 355 354 356 354 353 352 350 350 348 348 348 347 348
301 300 301 302 304 304 305 307 305 307 307 304 305 305 305 306 307 311 316 314 315 322 324 321 321 319 319 321 322 322 320 319 322 322 324 324 322 322 324 324 324 321 319 319 317 317 318 319 319 320 320 320 321 322 325 327 324 323 327 327 329 332 334 337 332 327 331 330 328 334 335 328 324 332 350 355 352 355 356 354 353 351 351 349 348 347 347 347
300 299 299 301 303 304 305 306 306 308 304 303 305 305 306 307 310 316 315 313 318 322 321 320 319 318 320 322 323 323 321 321 321 321 324 324 322 323 323 323 323 321 320 320 321 319 318 319 320 320 320 320 321 323 324 326 326 325 324 326 328 332 336 338 334 329 330 327 324 330 331 327 324 329 342 349 348 353 356 355 353 352 351 350 349 348 347 348
299 298 298 302 304 305 305 305 307 305 303 305 305 304 306 311 315 317 315 315 318 320 319 320 319 319 321 323 323 323 323 322 322 322 323 324 322 321 320 319 321 322 320 320 324 322 319 321 321 320 321 321 322 323 323 326 325 323 324 326 326 331 335 336 334 330 328 325 324 327 330 327 322 325 338 347 348 351 354 355 354 352 351 350 350 348 346 348
299 298 297 302 305 306 305 307 306 303 305 305 305 305 309 316 317 316 318 317 315 318 320 320 320 319 319 321 321 322 324 323 322 324 324 324 323 320 320 320 320 322 320 318 320 320 320 321 321 321 321 321 322 322 323 325 324 324 327 325 321 324 328 327 327 328 325 323 323 326 332 329 320 323 338 349 350 351 351 353 353 352 351 350 350 348 347 348
299 298 298 300 304 305 306 306 304 304 305 304 305 308 312 315 316 316 319 317 314 318 321 319 320 320 319 320 320 321 324 323 322 324 325 325 324 323 323 323 322 319 316 316 317 317 319 321 320 320 321 322 322 320 322 323 323 324 325 320 317 318 320 320 321 323 322 321 322 326 330 329 324 329 341 347 347 347 348 349 351 351 350 350 349 348 348 348
298 298 299 300 303 305 305 304 304 304 304 305 306 310 314 314 314 315 316 315 316 318 320 318 319 320 319 318 319 320 322 322 322 322 324 324 324 324 323 323 323 321 317 316 314 313 316 319 319 318 320 322 321 318 317 319 323 323 321 317 315 316 318 319 321 321 321 320 321 326 329 327 325 332 343 344 342 344 344 345 347 348 350 349 349 348 347 348
298 298 300 301 303 306 306 306 306 305 305 307 308 310 315 315 316 317 315 315 317 318 319 318 318 319 319 318 319 319 319 321 322 322 323 323 322 323 323 320 321 323 321 316 314 313 312 315 318 319 319 320 322 320 319 323 323 323 325 322 317 316 316 317 318 318 318 319 321 326 328 322 321 330 343 342 340 341 340 341 344 345 347 347 347 347 346 346
298 298 301 303 305 308 310 309 308 306 306 309 307 310 313 313 316 317 316 317 317 318 318 317 319 318 317 319 320 320 320 320 321 321 322 322 322 323 323 321 320 322 320 315 314 315 312 313 318 319 319 320 321 322 324 325 321 323 328 323 318 320 319 317 318 318 317 318 322 324 325 326 329 336 342 339 338 340 339 339 341 342 344 345 345 345 345 345
299 301 302 305 308 311 313 312 310 306 307 309 305 309 311 311 313 315 319 320 317 318 317 316 318 316 314 318 320 320 319 319 320 320 320 322 322 323 324 322 320 320 320 318 316 315 312 313 319 319 318 320 321 322 323 322 319 321 321 318 320 326 324 318 316 320 318 315 321 324 322 325 330 332 339 341 338 341 342 340 339 341 343 345 345 345 344 345
303 305 305 306 310 312 313 312 310 306 308 307 305 308 309 310 312 315 320 319 315 316 316 314 316 316 314 315 317 319 319 318 319 318 318 319 320 322 323 322 320 320 321 321 319 318 314 313 319 320 318 319 320 322 323 323 322 321 317 319 324 324 326 325 319 319 318 314 319 322 319 319 319 322 337 345 339 339 343 341 340 341 344 344 345 346 345 344
305 305 307 309 311 312 312 311 309 308 308 304 306 309 309 309 310 313 315 315 314 315 315 314 315 317 316 314 316 319 318 315 317 318 316 317 319 320 322 322 320 319 321 321 321 321 318 312 316 322 320 319 320 320 320 322 323 321 319 324 324 317 320 325 320 318 317 315 318 320 319 319 317 319 330 338 340 343 346 346 342 340 342 343 342 345 346 345
305 307 309 311 311 310 310 309 308 309 308 305 306 309 310 309 309 312 313 313 313 313 313 314 315 316 316 316 316 317 317 314 316 317 315 317 318 319 322 322 321 319 320 321 322 321 320 315 314 319 321 319 320 317 314 316 320 321 322 325 324 319 319 321 319 316 316 316 316 318 319 319 321 328 331 332 342 348 348 351 348 340 340 343 341 343 346 345
306 306 305 310 311 309 309 310 309 308 307 307 307 307 309 310 309 312 313 312 313 312 312 313 314 315 316 317 316 316 318 317 317 317 316 318 319 318 321 321 321 321 319 321 322 321 322 318 313 317 319 316 316 317 315 316 318 318 318 318 319 321 321 321 320 317 315 316 317 317 317 316 326 341 341 338 344 347 347 351 351 345 340 341 342 343 345 346
305 305 306 311 311 310 311 312 311 308 307 309 308 305 308 310 310 311 311 312 312 312 312 313 314 315 315 316 316 316 318 318 318 318 317 318 318 318 320 320 321 321 317 319 321 320 323 320 314 314 314 312 315 320 320 320 320 319 318 318 318 319 318 316 318 318 316 316 317 317 314 315 328 342 342 344 344 339 343 347 346 345 341 341 342 342 345 347
305 304 306 309 309 310 310 310 311 311 308 309 310 308 309 311 311 310 310 311 312 311 312 312 313 314 314 314 314 315 315 315 315 316 316 318 319 319 321 321 320 319 319 321 320 321 325 324 317 314 315 318 320 322 321 319 321 322 320 322 323 322 317 312 314 317 316 316 318 317 314 317 334 347 340 343 345 338 341 345 342 342 341 342 341 339 343 347
306 305 306 307 308 309 310 310 313 314 311 311 312 312 313 314 314 312 311 311 311 311 311 312 312 313 312 313 313 314 314 313 314 316 316 319 320 319 321 321 319 320 321 321 320 322 326 325 319 315 318 322 321 321 322 320 321 318 319 323 322 322 320 317 321 324 319 315 317 317 314 317 338 363 350 343 344 338 339 342 340 341 342 341 341 341 343 347
305 306 307 308 309 310 311 313 315 315 314 314 314 313 314 315 315 316 314 313 314 313 313 313 314 313 313 313 313 315 314 313 315 316 316 319 321 321 322 319 319 321 321 322 324 322 321 324 321 315 316 318 317 318 318 318 320 317 319 323 322 324 324 322 329 330 320 316 316 316 313 315 338 368 358 345 341 336 335 337 338 342 344 342 341 343 345 348
306 307 308 309 311 312 312 312 312 313 315 316 316 315 315 315 316 316 316 317 317 317 317 318 317 315 315 315 314 316 315 314 315 318 319 320 321 323 324 322 322 322 321 326 329 322 323 328 323 315 314 315 315 315 315 317 319 319 321 322 321 324 322 320 323 321 318 321 321 315 313 320 340 358 351 347 344 339 338 338 337 340 342 342 344 344 346 349
307 309 310 312 312 312 312 311 311 312 313 315 317 317 316 316 316 316 317 318 318 319 319 319 319 319 319 318 319 319 319 317 317 319 322 321 321 325 328 327 326 326 332 338 335 328 332 334 327 320 318 316 316 320 324 324 318 315 318 320 320 323 322 323 320 315 319 324 320 320 322 322 331 344 347 349 347 344 344 343 342 346 344 344 346 346 347 348
308 309 312 314 313 311 312 312 311 311 312 314 316 317 317 317 316 316 316 317 317 318 318 318 319 320 320 321 321 320 321 321 320 320 320 320 321 322 325 326 326 332 343 345 337 333 332 327 325 327 325 322 323 326 328 325 319 316 318 318 320 322 322 322 317 318 329 322 313 328 342 326 324 339 347 349 350 351 354 350 347 351 349 345 346 347 346 345
309 309 311 311 311 312 313 312 311 311 312 314 314 315 316 317 317 318 318 317 316 317 318 319 319 320 321 321 321 322 322 322 322 322 322 321 322 321 322 324 326 332 338 334 333 336 328 320 321 325 324 324 325 325 325 324 322 320 320 319 320 322 321 320 319 325 334 321 313 335 353 336 329 338 340 342 348 350 355 356 349 347 348 345 345 346 344 343
307 308 308 308 309 310 311 310 311 312 313 313 313 314 316 318 319 318 316 316 317 316 317 320 320 319 320 321 322 325 325 323 322 324 325 324 323 323 323 323 325 329 330 328 333 334 325 323 328 323 319 322 324 323 324 323 321 321 321 321 322 322 322 321 322 326 331 325 321 338 353 344 334 333 335 340 345 345 348 350 344 342 345 346 345 345 344 343
305 305 306 307 307 308 309 310 311 312 312 311 312 314 315 317 317 315 314 315 318 317 317 319 320 319 318 319 321 324 326 324 324 326 327 326 326 327 327 326 327 331 330 328 333 332 324 327 334 325 317 319 322 322 323 322 321 319 319 322 323 322 322 322 323 326 328 328 328 336 344 344 338 334 340 348 351 346 344 344 342 343 346 346 345 344 344 343
303 303 305 306 308 308 309 310 310 310 310 310 312 313 313 314 314 312 313 314 315 317 317 316 317 316 316 318 320 322 323 321 320 321 322 324 326 327 327 328 329 333 335 332 330 332 330 328 330 326 318 317 320 321 321 321 320 317 316 321 321 320 320 321 323 327 327 329 331 330 329 334 338 338 339 344 346 342 342 344 345 345 345 344 346 346 345 346
302 302 304 306 308 308 308 309 309 309 309 310 313 312 311 311 310 311 314 315 314 315 315 314 314 314 315 318 321 321 318 315 315 316 317 319 321 322 323 326 327 331 339 340 333 333 334 328 326 324 318 317 321 321 319 318 318 315 316 321 322 322 323 322 323 328 329 329 329 326 325 332 340 341 338 338 339 341 345 347 348 351 350 347 346 347 347 347
Wind_Speed
20 21 20 20 20 21 22 22 22 22 22 23 23 23 23 24 24 24 24 24 24 24 24 24 24 23 23 22 20 21 22 24 21 12 9 16 19 16 14 10 13 19 20 20 23 21 14 11 12 14 11 6 3 4 6 3 3 3 2 2 2 4 5 7 10 8 6 10 13 13 14 11 11 9 5 7 9 11 10 6 6 4 4 9 12 19 24 23
21 21 21 21 21 21 22 23 23 23 23 23 23 24 24 25 25 25 25 25 25 24 24 24 24 23 22 20 19 19 22 23 18 12 12 11 13 11 17 16 14 20 23 23 25 21 14 11 14 14 8 5 3 4 7 5 5 4 2 2 3 4 6 6 9 8 7 12 14 13 14 12 12 11 8 9 10 12 10 7 7 7 9 12 16 22 23 23
23 21 21 21 21 22 22 23 23 23 23 24 24 24 25 25 25 26 26 26 25 25 25 24 23 22 21 18 16 17 18 16 11 8 4 7 13 9 9 18 17 19 22 23 26 23 18 16 18 14 7 4 4 5 6 5 6 4 2 3 4 5 6 7 11 10 8 13 16 14 12 11 11 11 8 9 12 13 11 10 10 10 12 13 17 21 22 23
24 23 22 21 22 22 22 23 24 24 24 25 25 25 25 26 26 26 27 27 26 26 26 24 23 21 19 15 12 14 13 9 5 1 3 6 14 13 2 13 16 19 21 20 22 22 19 19 18 12 6 3 4 5 5 6 5 3 4 6 4 5 7 9 14 12 9 14 16 14 13 11 11 10 8 11 12 10 10 13 14 15 16 17 18 20 22 23
25 24 23 22 23 23 23 24 24 25 25 26 26 26 26 26 26 27 28 28 28 26 26 25 23 20 16 12 9 10 8 5 1 0 4 12 16 12 4 6 14 18 20 19 18 16 15 17 14 8 4 4 5 5 5 9 6 2 6 9 4 5 7 10 14 13 12 13 14 15 14 12 11 9 11 15 12 7 9 13 13 15 18 19 19 20 20 21
24 25 24 23 24 24 23 24 25 25 26 27 27 27 27 27 27 27 28 29 29 27 26 25 22 17 12 9 6 4 4 3 4 11 14 14 14 11 7 7 12 17 20 20 17 14 12 15 13 8 6 4 7 8 5 8 7 4 6 7 5 6 6 7 13 14 15 15 15 15 13 12 13 10 12 16 9 2 5 11 12 13 17 21 21 20 19 19
24 25 25 24 24 25 25 25 25 26 27 28 28 28 28 28 28 28 28 29 29 28 26 24 19 13 8 4 2 1 1 6 15 18 13 10 12 10 6 8 13 20 22 19 16 14 13 15 13 8 7 5 6 9 4 6 7 7 7 5 5 7 7 9 14 15 17 18 16 14 12 15 15 10 11 16 6 3 4 12 13 14 17 20 19 19 19 19
24 25 25 24 25 26 26 26 26 27 28 28 28 29 29 29 29 29 29 28 28 28 25 21 16 9 4 1 0 2 2 10 19 13 5 8 13 13 6 5 17 23 24 22 18 15 13 15 13 7 7 7 5 8 5 5 6 9 9 5 3 5 7 11 14 16 17 14 13 14 14 16 13 9 12 15 5 2 9 15 15 16 17 17 17 18 17 17
25 25 26 25 25 26 27 27 27 28 29 29 29 30 30 30 30 30 28 27 27 25 22 18 11 4 1 1 0 4 5 8 10 5 4 8 11 13 9 3 18 25 23 21 18 15 12 12 12 6 6 6 6 7 6 5 6 8 9 5 3 4 7 12 14 16 15 9 13 16 13 11 8 8 10 10 5 7 12 16 16 17 17 16 16 17 16 15
25 25 26 26 25 27 28 29 28 29 30 29 30 30 31 31 31 30 28 27 26 22 18 13 7 2 3 3 2 5 6 6 5 7 6 7 10 12 8 2 18 24 17 15 15 14 10 8 8 3 3 4 5 5 5 6 3 4 6 1 3 4 8 13 14 15 13 11 16 16 11 8 8 6 7 7 8 12 13 15 17 17 17 16 15 15 14 15
26 26 26 26 26 28 29 29 30 30 31 30 30 30 31 32 31 29 27 25 23 18 13 9 5 5 5 3 4 6 7 6 6 7 8 8 12 12 5 4 19 22 14 11 13 15 11 6 7 2 1 4 6 5 3 4 1 4 7 4 2 5 8 11 14 15 11 9 12 12 10 7 7 6 6 8 12 13 15 15 17 16 15 15 15 14 12 14
27 26 27 27 27 28 30 30 31 32 32 32 31 31 31 32 30 28 26 22 18 12 8 5 4 7 4 3 8 12 12 11 10 12 14 15 15 10 3 6 18 21 16 10 9 15 12 7 10 4 1 4 6 4 2 2 2 6 8 5 6 8 8 9 11 14 12 9 11 13 8 5 9 8 5 11 12 13 15 15 16 15 14 13 14 12 11 13
27 27 27 29 28 29 30 30 32 34 34 33 32 32 32 30 28 26 23 16 11 8 4 1 6 7 2 3 9 13 14 13 14 17 17 15 13 7 4 8 17 17 16 14 11 16 14 8 7 2 1 3 4 3 2 3 4 6 5 4 7 6 6 7 7 13 10 9 16 14 5 8 13 9 7 13 14 14 14 14 15 14 12 13 12 11 11 13
28 28 29 29 29 29 31 32 34 36 35 34 33 32 31 28 26 22 15 10 6 3 2 5 7 6 2 6 11 14 13 12 12 11 9 8 6 7 8 12 17 14 13 15 13 14 14 8 3 1 2 3 1 2 4 4 3 6 5 4 5 4 7 6 7 14 9 7 16 14 7 7 11 10 10 13 16 16 15 14 15 13 13 12 12 12 12 13
29 29 29 30 30 30 32 33 36 37 36 35 34 31 29 26 21 14 7 4 2 3 6 6 6 4 3 9 11 10 8 7 6 3 4 2 5 8 11 15 17 15 12 11 7 6 10 8 3 3 3 1 1 2 4 3 2 5 4 4 4 4 7 7 7 13 10 8 13 13 8 5 7 11 12 13 15 17 15 14 15 14 14 13 12 13 11 12
30 29 29 31 30 32 33 34 37 37 36 36 34 28 25 21 12 6 3 1 2 5 6 3 4 2 4 6 4 4 5 5 2 2 4 4 1 6 12 14 12 11 10 7 4 2 6 7 3 2 2 2 4 4 5 4 3 3 3 4 6 5 7 7 7 10 9 11 12 12 7 3 3 10 14 14 16 16 14 14 15 15 14 13 11 11 11 11
30 30 31 31 31 33 34 36 38 37 37 36 30 25 20 12 4 2 2 3 2 3 5 2 2 1 5 6 4 5 4 3 2 7 10 10 4 10 13 9 5 6 4 2 4 2 3 4 2 1 2 2 4 6 6 5 6 4 2 3 5 7 8 8 8 9 10 13 14 12 9 5 2 8 14 16 17 16 14 14 15 14 13 13 11 11 11 11
30 30 31 31 32 33 35 37 37 37 37 32 25 23 14 5 1 1 3 4 3 2 3 2 1 2 4 3 3 3 2 5 10 15 13 7 5 14 11 6 6 8 6 3 3 4 3 2 2 3 4 4 5 8 8 6 7 8 7 5 4 6 9 10 9 10 14 15 15 13 13 11 3 7 13 15 16 16 15 14 14 14 14 13 12 12 12 12
31 31 30 32 33 33 36 37 36 37 33 25 23 19 6 1 1 1 1 2 1 2 2 1 3 3 6 5 4 6 9 12 14 12 6 3 9 12 6 6 9 9 6 4 4 5 4 2 3 5 7 8 9 10 10 8 10 12 9 8 9 8 8 9 7 9 15 13 14 15 14 13 6 7 12 13 15 15 14 13 12 13 14 13 12 12 12 13
32 32 30 32 33 35 38 36 37 36 24 22 26 15 1 2 2 1 1 3 4 6 7 6 6 7 11 10 6 7 10 9 8 5 5 7 11 10 4 4 6 5 5 6 5 4 4 6 7 8 9 11 11 11 8 8 12 12 8 7 10 10 7 8 7 8 14 11 12 12 9 9 5 7 11 12 13 14 14 14 13 13 13 12 13 13 14 14
33 32 31 33 35 38 38 35 39 30 15 22 25 7 1 3 2 3 5 7 8 9 12 13 11 14 16 11 7 4 5 5 6 5 8 10 11 9 3 3 6 5 4 4 4 3 5 9 9 8 10 12 13 11 6 7 11 12 9 8 9 7 5 7 8 10 13 10 8 5 6 8 4 5 9 11 14 15 16 16 15 15 14 12 14 15 15 13
32 31 33 35 38 41 36 36 38 19 9 21 17 3 2 4 3 3 3 8 9 10 13 14 12 16 19 17 15 7 3 6 8 8 10 10 6 5 4 4 7 6 4 3 3 5 7 9 9 8 7 7 7 8 7 8 10 10 8 7 8 6 4 5 6 9 11 9 6 4 8 9 3 5 10 13 15 14 15 16 14 15 14 13 14 15 15 13
32 33 34 36 41 41 36 38 29 9 12 23 10 1 2 4 8 4 4 6 9 7 10 12 10 12 13 12 11 11 9 10 8 8 12 13 5 5 7 6 7 5 6 7 7 7 7 6 7 7 5 7 5 5 8 7 7 7 7 8 7 8 7 5 6 9 10 4 2 5 7 7 3 5 9 13 15 11 12 14 13 13 14 15 15 14 14 15
33 33 33 37 42 39 37 34 15 5 22 22 3 4 4 5 14 6 4 4 7 5 6 9 6 7 9 5 7 13 10 8 7 5 11 15 6 5 8 7 7 6 6 8 7 7 5 1 5 9 8 11 9 7 10 8 6 7 9 10 7 11 12 8 7 9 7 3 3 6 5 7 6 9 10 10 13 13 12 14 14 14 14 14 14 15 15 16
33 33 34 40 40 40 39 24 6 14 29 15 5 6 2 10 17 6 3 2 5 5 3 4 3 6 6 3 8 10 5 5 9 6 8 13 10 6 5 4 4 7 7 8 6 7 6 1 6 11 10 11 10 8 12 11 7 6 9 11 9 13 12 7 11 9 5 5 7 8 6 7 7 11 12 9 11 15 12 14 17 15 15 14 14 15 15 15
35 35 38 40 39 41 33 11 8 25 24 4 7 3 6 16 17 4 3 2 4 4 1 2 3 4 5 5 7 6 4 4 7 8 8 10 11 7 4 3 1 5 7 6 3 4 4 3 6 10 11 12 10 9 11 12 9 6 7 9 9 11 11 11 14 11 6 6 8 12 10 7 4 9 12 11 12 15 14 15 18 16 15 16 14 15 15 15
37 38 41 40 38 36 21 7 18 23 10 2 2 6 12 17 12 2 3 2 3 2 1 1 1 3 4 5 8 6 2 1 1 8 11 12 10 4 5 7 3 2 5 3 3 3 3 6 6 8 11 12 11 9 10 11 9 5 6 11 11 10 12 14 13 11 6 1 5 12 9 6 6 6 8 12 12 13 15 18 19 17 17 18 17 17 17 17
40 40 40 40 38 30 14 13 18 11 3 4 7 11 16 15 5 3 1 2 1 0 1 1 1 3 1 2 8 5 3 1 0 3 9 12 9 2 6 11 8 7 7 6 6 2 4 9 9 9 9 9 9 7 9 11 8 2 5 10 10 10 13 14 12 9 5 3 4 8 6 4 8 3 5 10 12 13 17 20 21 20 20 20 20 20 19 18
42 41 39 41 40 28 12 10 13 9 9 10 10 14 17 8 2 3 1 1 1 1 0 2 1 2 2 2 7 7 4 1 1 1 5 8 6 2 4 8 10 11 9 9 9 2 3 7 10 11 9 8 7 4 9 14 7 2 7 7 5 5 8 9 9 5 4 5 7 9 10 7 7 3 5 7 10 14 17 18 20 20 20 20 19 20 20 17
43 40 40 40 34 22 10 12 18 14 11 9 10 16 13 2 4 2 2 2 2 1 1 1 2 2 2 3 5 7 6 5 1 3 5 5 5 2 1 3 6 9 7 6 9 5 1 1 4 8 7 7 7 4 8 12 7 9 10 8 7 5 3 2 1 3 4 6 8 11 15 11 7 5 7 7 10 14 15 13 15 18 19 20 18 18 19 16
44 41 39 37 29 16 8 11 14 7 2 5 13 14 6 1 2 3 4 1 2 1 1 1 1 0 0 1 3 3 6 5 2 6 5 5 5 3 4 4 3 5 6 6 6 3 4 4 3 3 3 6 8 6 6 7 8 10 8 8 7 4 3 3 2 2 5 6 6 8 14 13 10 6 7 10 12 14 14 13 16 19 21 20 19 18 18 17
45 42 38 35 27 16 12 13 11 4 3 8 12 7 3 2 3 5 2 0 1 1 1 1 1 2 3 3 3 2 3 4 5 7 8 7 7 7 8 7 6 6 6 7 6 2 7 8 3 2 3 7 9 7 6 4 6 8 7 9 8 4 4 4 3 4 6 5 2 4 10 10 9 9 6 9 12 13 14 15 14 17 20 20 20 19 17 16
46 43 37 32 26 20 22 22 19 15 14 11 6 1 3 4 5 6 5 3 1 1 2 1 1 2 4 4 3 2 2 2 5 7 8 8 8 9 8 6 11 9 4 6 8 5 6 4 4 6 3 6 11 10 7 6 7 10 9 10 9 6 6 7 4 2 4 5 1 4 8 6 5 8 10 13 17 16 15 14 11 10 14 17 18 18 16 16
45 41 37 31 24 19 18 17 16 14 12 7 2 2 5 6 3 6 9 7 2 2 1 1 3 4 3 3 3 1 2 1 3 5 7 7 7 9 6 5 10 8 3 5 7 7 9 6 7 11 4 6 13 11 7 7 8 10 8 8 9 7 6 6 5 4 4 3 2 6 6 6 4 2 5 11 14 11 11 12 10 9 10 12 14 15 16 17
43 39 34 26 16 10 7 7 8 7 6 5 4 4 8 7 2 4 6 6 3 4 2 1 4 7 4 2 1 1 2 1 2 3 6 7 7 9 8 7 9 7 5 6 4 5 9 7 5 6 3 8 11 7 5 8 8 7 4 6 9 7 6 3 2 3 3 2 3 5 4 4 3 5 6 7 8 8 9 10 11 13 11 10 12 15 17 17
43 38 28 18 11 8 7 7 6 10 8 4 5 7 7 4 2 3 3 3 3 2 2 1 1 4 5 2 1 0 2 1 1 2 4 5 6 8 9 8 10 12 9 7 3 3 7 5 4 4 3 8 10 8 8 8 6 4 5 7 4 3 6 4 1 1 1 4 4 4 4 3 2 8 9 7 8 10 9 8 12 13 12 12 12 14 16 17
38 30 19 14 14 11 8 5 9 13 6 4 7 8 5 3 3 3 2 1 2 1 1 2 3 3 3 2 2 0 3 2 0 1 1 3 4 6 8 6 10 15 14 10 5 2 5 5 6 8 10 9 7 8 11 11 6 5 7 8 4 2 2 2 3 3 4 8 4 4 7 5 3 4 3 2 7 11 11 9 10 10 12 14 14 14 16 18
27 18 11 10 11 9 5 4 12 11 4 5 9 7 5 5 4 4 2 1 1 1 2 3 3 1 2 2 2 1 4 3 1 2 2 4 3 5 9 6 9 14 16 14 7 3 5 5 5 9 13 10 5 6 11 10 6 1 4 9 6 4 5 2 4 5 6 8 4 4 7 6 6 5 3 4 6 9 10 7 8 11 14 15 15 15 16 17
16 8 4 3 7 8 4 9 10 5 3 7 9 7 5 6 5 4 4 2 2 2 2 4 3 2 3 2 1 1 3 3 3 3 2 4 2 4 7 5 8 14 16 15 8 4 5 6 4 5 6 7 7 8 10 11 6 1 3 8 4 3 5 4 3 4 6 7 4 5 6 5 6 6 6 10 9 8 10 6 8 12 14 14 14 14 14 14
8 3 2 2 7 10 11 9 5 3 5 5 6 5 3 5 6 5 5 5 4 3 3 5 5 5 4 2 3 3 2 4 4 3 2 3 2 3 5 5 6 9 13 14 10 6 5 6 5 3 2 4 7 8 11 13 10 5 7 8 5 2 2 3 3 2 4 6 5 6 7 4 4 5 8 12 11 10 11 9 8 10 13 15 14 12 13 14
5 2 1 4 6 8 7 3 3 3 5 4 3 4 3 3 4 4 5 6 6 4 3 4 6 5 4 3 3 2 2 4 5 4 4 4 4 4 5 6 6 6 7 9 9 7 5 4 6 4 4 7 9 8 11 15 13 10 9 8 9 7 4 6 7 3 3 5 4 5 8 5 6 6 8 10 10 12 12 10 9 9 11 12 12 12 13 13
3 2 3 2 2 1 2 3 4 3 5 4 3 4 5 5 4 5 4 5 6 5 3 4 6 5 5 6 5 4 4 5 6 6 6 6 8 6 3 3 5 7 6 6 9 9 4 3 6 8 7 10 9 6 6 10 12 13 11 10 11 10 9 10 9 4 4 3 1 2 6 4 5 6 8 10 10 11 8 6 8 9 8 8 10 11 12 12
2 6 10 10 6 6 3 3 4 3 5 5 5 6 5 4 4 4 3 5 6 5 4 5 6 7 7 7 7 7 7 7 8 9 8 7 9 10 6 3 4 4 4 5 7 8 4 2 5 7 6 6 6 4 2 2 7 11 12 12 12 12 13 12 6 4 6 6 4 3 6 5 3 3 5 6 7 8 7 6 8 10 6 6 9 10 11 11
5 7 9 8 3 6 4 3 3 4 5 5 7 8 7 6 5 6 6 5 4 4 4 5 6 7 8 7 8 9 8 6 8 10 10 7 6 7 7 6 4 4 5 5 4 6 5 4 5 6 6 6 7 7 6 4 6 8 8 10 13 16 16 8 2 3 6 9 11 8 7 5 3 0 1 4 7 9 11 9 8 8 6 5 7 8 10 10
6 4 5 5 3 5 3 2 2 3 3 4 5 7 8 7 6 8 10 7 5 5 4 4 5 6 6 6 7 9 9 9 7 6 7 7 5 3 4 5 6 6 7 7 5 6 5 5 7 8 9 9 9 9 8 5 5 5 6 8 12 17 19 9 3 4 7 7 11 10 7 5 3 2 3 4 6 10 13 11 8 8 8 7 6 7 8 9
4 3 3 3 1 3 3 1 3 3 3 5 5 4 6 7 6 7 9 9 8 8 6 5 5 4 6 8 9 9 11 12 10 7 6 6 5 2 1 2 4 6 9 10 9 6 2 3 9 11 11 11 10 8 6 6 7 8 9 11 11 14 16 11 5 7 5 4 6 9 6 6 7 6 6 6 8 10 11 11 8 8 9 8 7 8 8 8
2 3 3 4 3 2 1 1 3 5 4 4 4 3 4 7 6 5 7 7 6 8 7 7 7 7 8 8 8 9 10 12 12 11 9 9 7 5 5 6 6 6 7 8 8 7 2 5 13 15 14 14 15 13 11 11 13 13 13 15 15 14 16 14 12 10 7 5 9 8 6 9 11 9 9 9 9 9 9 10 9 8 8 7 7 6 8 9
2 3 2 4 4 3 3 3 6 8 7 5 4 4 6 7 6 4 4 3 3 6 7 6 9 13 11 5 3 5 5 7 10 10 9 9 8 8 9 8 6 4 5 6 4 5 3 7 12 15 17 18 20 18 13 12 14 14 15 17 16 17 18 17 17 13 9 8 13 8 8 11 12 10 11 11 11 12 11 10 7 5 5 6 7 9 11 12
3 3 3 4 3 5 7 8 9 9 8 6 4 5 7 8 7 4 2 3 4 5 7 7 8 9 6 2 1 2 3 5 7 6 5 7 8 7 8 8 5 2 3 5 1 2 3 5 6 10 15 17 20 18 14 13 14 14 16 17 17 18 20 19 19 17 15 15 15 10 10 12 12 12 13 11 10 10 7 4 4 5 7 8 10 12 13 14
3 3 3 4 4 6 7 7 7 6 6 6 5 4 5 6 5 6 5 5 4 2 5 7 5 1 2 2 2 5 6 5 5 5 4 5 6 5 5 5 3 2 3 4 3 1 2 3 1 5 9 12 16 16 13 14 15 16 17 16 16 17 18 18 18 15 14 14 13 11 10 10 10 11 10 6 3 3 4 5 8 10 9 10 12 13 13 14
4 5 5 4 5 6 5 5 5 5 5 4 4 2 3 3 5 9 8 7 9 7 3 1 5 6 3 3 5 7 6 3 7 9 9 8 6 4 3 2 2 1 1 3 3 3 3 3 0 3 5 8 10 12 14 15 16 18 19 17 15 14 13 14 13 11 11 12 10 7 7 7 7 8 8 5 3 6 9 10 10 9 9 11 13 13 13 14
4 5 4 4 5 5 5 5 4 4 4 2 2 4 5 5 7 9 7 4 6 8 4 7 9 7 5 5 5 4 4 7 10 12 11 10 10 9 8 6 4 3 1 2 2 3 2 2 2 1 5 7 6 9 11 11 10 12 15 16 15 13 11 11 10 10 12 12 10 8 8 8 7 7 7 8 8 9 11 11 9 8 9 12 14 14 14 15
Wind_Direction
356 354 355 357 357 355 355 353 352 352 352 352 350 350 350 348 346 345 344 342 341 340 337 335 335 335 332 332 331 328 326 322 318 308 274 290 297 275 249 221 198 184 172 162 154 146 142 147 143 150 155 160 190 172 169 174 177 183 202 228 210 195 193 184 182 173 147 159 165 165 170 161 153 160 136 130 130 136 148 138 127 96 93 128 122 131 144 150
354 353 353 353 353 353 352 351 350 350 350 349 348 347 347 346 344 342 340 339 338 336 335 332 332 331 329 329 330 329 327 321 311 287 280 314 331 281 234 219 203 189 180 170 163 152 147 159 154 155 160 169 189 165 163 173 188 194 182 213 235 201 185 186 184 171 157 164 163 165 170 166 156 154 157 156 146 151 151 138 136 116 113 122 128 139 148 154
351 351 351 350 350 350 350 350 349 348 348 347 346 345 345 344 343 340 337 336 335 333 332 329 329 329 325 327 330 331 329 321 305 284 305 36 20 354 214 208 207 194 190 184 176 169 163 160 157 158 168 193 182 169 178 175 187 208 210 229 244 199 178 178 183 182 172 159 157 163 168 166 156 153 172 165 156 170 168 156 162 153 142 141 142 148 154 160
350 349 350 350 348 348 349 349 348 347 346 346 344 343 342 342 341 339 335 332 331 330 328 327 328 325 322 325 329 335 332 307 289 275 75 23 0 5 133 199 207 199 198 196 187 183 169 154 158 164 169 200 179 173 186 176 179 180 199 233 241 179 184 183 182 181 167 159 158 159 161 163 158 158 171 156 157 189 193 180 176 166 156 151 152 155 161 165
349 347 348 349 349 347 347 348 347 346 346 345 343 341 341 340 338 337 334 330 328 328 326 324 326 324 320 321 329 341 332 302 300 360 345 340 331 329 320 206 207 203 198 194 186 180 162 149 159 173 183 190 171 177 193 185 186 178 213 240 241 173 195 183 174 167 155 156 154 158 165 160 156 167 173 165 169 195 199 193 179 163 157 155 157 159 164 170
348 346 345 346 348 347 346 347 346 346 346 344 342 340 339 338 336 334 331 328 326 325 324 323 324 322 314 316 338 350 311 288 299 298 312 335 335 319 293 236 210 199 192 186 172 163 153 151 164 180 196 195 178 191 195 177 190 225 225 246 237 196 205 172 164 159 149 155 163 168 162 146 157 175 179 180 190 276 190 178 165 158 157 155 156 161 168 174
347 346 344 344 346 346 345 345 345 346 345 343 341 339 338 336 334 332 329 326 324 323 322 321 322 318 308 322 7 12 237 251 281 295 308 344 358 345 295 232 206 191 185 181 167 165 161 163 179 179 183 193 186 200 195 153 185 225 232 254 235 206 207 170 162 161 156 165 169 160 149 156 173 172 175 189 207 331 155 153 149 150 155 155 158 167 173 176
346 345 344 343 343 345 345 344 345 346 344 341 340 338 336 335 332 330 327 324 322 321 319 318 319 313 298 346 303 287 217 254 282 288 292 343 1 359 352 195 195 186 183 185 173 170 167 172 183 171 185 197 179 190 180 148 182 215 229 244 215 199 199 171 162 164 162 163 153 151 162 172 175 151 170 193 191 122 145 141 143 148 155 161 165 170 174 178
346 344 343 342 341 343 343 343 345 345 343 340 338 336 335 334 331 328 325 322 320 318 316 315 312 297 237 138 241 284 255 259 278 248 257 328 355 359 3 162 185 181 183 189 174 168 174 180 185 179 198 193 172 180 179 196 201 204 218 232 221 205 180 167 162 164 159 148 150 159 169 165 149 135 170 192 157 135 142 140 147 153 160 168 172 174 175 178
345 343 342 341 340 341 341 341 344 344 342 339 337 335 334 332 329 326 323 320 318 315 313 310 296 225 187 176 193 272 280 272 247 228 272 326 350 350 348 178 180 180 181 186 178 172 178 186 184 188 214 179 174 173 163 196 194 175 194 253 249 199 163 166 160 160 154 151 165 163 158 150 145 164 191 183 154 146 145 147 152 159 167 171 175 177 178 182
344 343 342 340 339 340 340 340 342 344 341 339 336 334 333 330 326 324 322 319 318 314 309 300 266 190 177 182 219 258 277 274 254 256 282 303 322 328 322 182 176 180 177 179 188 180 178 178 170 170 235 169 166 170 178 196 106 152 161 79 83 137 140 162 156 158 150 149 167 145 128 137 158 210 211 162 157 155 151 155 160 165 171 172 176 178 181 188
343 343 341 339 339 339 339 339 342 343 340 338 335 334 332 328 324 321 320 319 317 311 304 286 207 165 160 204 227 253 269 273 278 282 284 288 298 305 289 178 173 181 180 176 189 188 184 162 169 184 210 160 150 169 207 188 137 169 165 103 110 119 129 155 156 164 156 150 153 126 117 171 193 210 167 147 158 159 157 160 165 169 172 173 177 179 184 191
342 342 341 338 338 339 338 339 342 342 339 337 335 333 330 326 321 320 319 318 315 305 293 183 159 152 154 238 237 266 278 275 281 285 285 284 279 263 212 175 171 178 187 185 183 194 194 162 166 180 171 185 155 154 121 119 149 160 158 134 132 125 148 156 160 169 155 147 156 149 177 213 203 199 143 152 162 158 163 167 171 173 174 177 179 182 188 192
341 341 340 338 337 338 338 339 342 342 338 336 334 332 329 324 320 319 318 317 314 292 157 130 143 146 178 259 271 287 283 272 277 284 297 288 238 192 179 174 172 176 188 192 184 196 203 180 147 116 187 225 155 133 114 108 153 147 135 140 150 163 164 151 168 172 152 151 169 176 223 221 195 186 159 164 166 164 172 173 176 177 177 180 181 186 189 192
341 341 340 338 337 337 338 340 342 341 338 335 332 331 327 322 320 319 319 320 323 136 118 114 139 143 278 277 284 291 271 258 271 291 339 346 157 164 180 179 180 187 197 206 195 191 195 178 164 189 191 205 189 173 138 122 140 156 154 160 189 192 154 148 182 183 164 162 182 191 224 241 196 179 167 171 173 173 177 176 180 181 181 184 185 190 191 190
341 340 339 338 338 339 339 341 343 341 338 333 331 330 326 322 322 324 327 42 127 130 110 104 154 158 292 289 296 288 257 237 244 348 352 346 208 177 174 175 177 188 203 223 215 153 158 169 180 213 174 163 193 175 146 146 155 188 222 173 188 187 156 157 181 197 172 154 183 205 224 260 196 175 168 173 180 179 181 180 183 184 184 187 188 193 194 191
340 339 339 338 338 339 340 342 343 341 337 333 332 330 326 322 321 353 50 96 93 128 119 99 129 174 266 271 278 279 266 224 284 329 324 324 264 171 152 155 161 161 168 190 194 169 144 174 179 167 188 180 175 168 168 181 172 186 219 173 196 185 165 159 166 195 179 162 184 207 228 245 150 165 172 175 182 183 185 184 185 188 187 188 191 194 197 197
340 338 339 338 337 338 340 341 342 341 337 335 337 333 325 318 318 59 85 73 51 134 133 99 140 219 246 239 267 285 304 292 312 316 311 329 174 169 146 127 132 134 138 127 160 188 179 182 205 179 183 177 167 184 193 185 174 183 187 181 201 190 179 174 166 178 180 182 190 193 220 233 182 160 180 180 183 188 191 188 187 189 189 190 192 196 199 202
339 338 339 338 336 337 339 340 341 341 337 341 346 338 327 324 312 138 110 35 43 221 239 177 187 266 284 271 278 293 301 297 302 301 283 112 149 170 146 116 126 130 154 161 163 188 176 153 201 192 188 186 180 193 199 183 179 186 189 191 187 185 189 176 146 160 175 189 200 195 214 224 194 170 186 185 186 192 195 192 192 193 193 192 193 198 201 205
339 338 338 337 337 338 339 339 340 340 340 349 349 341 350 358 310 146 318 262 228 248 272 251 218 261 278 279 288 304 304 284 268 256 191 146 142 154 146 112 120 133 166 171 163 173 182 189 202 197 186 181 183 195 198 184 184 182 183 204 198 190 184 159 125 148 172 191 211 209 227 233 208 182 190 188 188 196 200 198 198 196 195 195 197 200 202 208
338 338 337 338 338 338 339 339 339 338 340 352 351 347 71 12 360 342 322 276 244 232 251 248 227 245 259 263 272 319 335 275 242 232 187 157 140 152 190 147 148 171 173 160 138 133 193 208 204 194 185 181 187 194 181 173 185 184 183 199 208 203 177 154 143 150 168 195 212 213 253 250 239 199 192 190 195 202 203 202 202 199 197 198 199 202 205 209
337 337 337 338 339 338 338 338 338 336 339 351 357 32 61 40 30 312 294 295 269 218 233 245 233 250 260 259 256 250 267 259 258 243 193 169 162 178 183 161 173 175 148 154 145 154 204 216 195 180 188 189 190 191 177 172 183 188 188 193 204 193 131 126 148 146 161 200 208 183 237 248 251 222 205 199 205 210 207 206 207 202 200 201 201 204 207 206
336 337 337 339 339 337 338 338 337 340 345 346 348 110 88 41 5 316 216 293 284 225 224 237 233 247 258 262 239 207 214 232 246 242 189 177 188 180 165 168 183 164 155 186 190 182 200 217 186 161 169 181 182 196 185 173 185 188 179 194 197 168 167 179 163 150 155 188 183 163 227 251 229 225 219 212 215 219 214 212 213 210 207 206 205 204 205 205
336 337 337 338 338 337 338 338 337 344 342 341 313 155 122 355 352 350 199 269 283 262 226 219 222 233 250 273 188 184 206 211 218 230 178 171 158 153 172 162 167 174 177 189 200 206 205 200 162 155 168 184 179 186 188 182 195 193 187 201 185 165 193 197 136 137 142 132 130 149 236 255 210 216 224 213 216 222 219 214 217 217 217 215 212 211 208 207
336 337 337 339 339 337 337 337 337 333 336 339 172 155 104 335 344 343 212 275 277 274 240 200 210 225 226 196 161 176 198 211 222 219 172 174 156 140 169 148 170 192 177 172 191 223 224 125 151 162 174 189 181 180 192 190 189 202 208 208 183 174 189 162 133 144 165 207 192 173 242 258 195 212 222 200 205 219 218 217 220 218 217 218 217 217 214 213
336 338 339 340 339 338 341 342 325 328 330 326 171 195 317 327 336 314 206 312 271 263 263 175 191 203 191 158 156 166 176 219 228 203 187 188 164 143 162 151 197 195 163 157 181 236 224 161 163 172 173 183 190 192 195 192 188 200 201 191 178 171 169 155 160 176 200 221 189 181 222 254 195 213 215 195 203 215 215 220 223 218 215 216 216 217 215 214
337 338 339 339 338 341 344 310 315 325 321 193 235 294 310 320 328 229 195 311 267 236 115 185 197 193 189 170 166 168 186 285 200 186 195 197 176 166 192 171 155 162 139 145 199 214 177 165 177 184 178 184 194 195 194 196 196 185 158 166 166 161 164 164 173 192 204 172 157 183 212 257 250 232 193 190 207 216 218 223 224 220 217 215 215 216 214 212
338 337 338 338 335 334 322 288 307 313 256 291 306 302 313 319 311 184 234 311 257 76 141 202 180 175 153 156 186 212 306 319 312 189 190 195 189 193 202 183 166 158 151 176 207 183 156 186 189 182 188 197 195 183 178 188 199 182 143 162 164 164 171 172 181 196 189 165 190 192 190 236 249 246 141 184 207 220 223 223 223 220 217 215 214 215 214 212
337 336 336 336 331 329 318 273 276 282 290 302 306 314 324 324 206 181 293 262 243 13 148 187 165 156 89 131 210 250 297 264 308 43 156 188 211 232 199 179 163 161 164 193 213 203 166 202 194 186 196 202 195 164 169 187 201 132 130 133 114 134 163 173 191 181 150 200 219 193 182 210 245 209 145 180 210 224 226 223 221 219 215 215 214 214 214 212
336 334 335 335 328 324 322 271 268 290 305 299 319 328 326 299 174 190 194 212 297 320 180 207 180 166 120 153 221 242 242 258 318 118 139 173 209 234 113 121 147 163 165 202 217 214 220 224 180 196 205 189 188 180 180 190 171 126 129 120 89 79 111 121 163 137 154 213 227 198 189 207 250 212 166 184 209 215 219 222 220 216 214 215 214 213 212 209
334 333 333 330 319 307 302 274 278 309 336 316 336 330 309 188 180 215 192 198 313 226 197 239 173 137 210 219 282 241 218 247 207 150 156 174 188 176 139 124 133 167 172 197 206 209 235 225 175 209 213 170 182 194 195 189 157 144 140 137 126 103 118 109 82 174 200 218 226 205 192 205 241 234 180 201 216 212 213 219 215 209 210 212 213 213 210 207
333 332 330 325 315 286 252 262 276 275 267 316 332 318 217 178 229 220 196 337 278 183 141 156 143 328 301 262 251 227 214 232 199 172 167 177 187 181 182 178 164 177 193 192 186 187 224 223 210 235 208 179 188 190 183 178 178 181 161 154 166 160 165 177 177 195 215 227 239 174 185 203 241 255 232 220 232 228 222 226 220 209 207 208 210 210 206 205
332 332 329 323 315 285 266 273 270 259 272 293 310 289 187 224 224 189 191 219 207 66 89 161 266 289 286 296 277 241 245 215 196 188 172 173 188 190 199 190 174 184 194 183 187 188 203 227 229 220 207 186 196 195 187 175 184 196 177 173 188 178 179 191 175 180 219 228 231 143 180 208 246 257 245 232 240 239 228 232 233 218 212 208 209 208 205 206
331 333 329 322 315 298 285 282 266 255 267 266 219 166 196 224 220 176 201 221 247 343 27 149 321 305 277 295 313 300 258 216 172 187 177 168 187 197 206 202 188 187 143 168 194 196 203 220 205 202 190 174 198 211 197 160 174 199 184 187 202 186 191 197 178 197 200 191 148 142 178 209 195 235 237 228 249 257 239 233 224 217 218 208 206 207 207 210
331 335 331 323 321 321 315 291 262 226 203 186 170 198 205 208 197 177 208 225 248 288 297 41 337 311 295 258 300 317 249 301 74 191 195 178 188 195 191 196 196 187 158 178 193 186 212 230 191 193 185 172 194 207 169 156 181 196 168 199 211 184 179 193 190 200 170 152 175 168 208 230 220 307 289 242 263 269 243 227 210 211 208 193 197 203 206 209
334 338 335 327 333 333 318 291 232 187 183 186 188 211 217 207 187 181 198 204 198 236 293 319 244 263 270 234 189 284 272 303 70 224 215 193 204 195 187 189 187 187 186 188 182 159 208 227 165 172 200 189 192 178 172 192 191 163 181 205 206 157 171 178 175 84 132 222 200 171 228 249 259 285 274 247 258 257 243 222 211 209 194 186 196 200 203 205
335 337 328 319 332 330 311 276 194 179 182 198 203 215 220 210 209 207 198 157 165 150 194 233 214 214 239 226 180 125 326 320 151 281 225 195 223 195 189 192 181 190 195 192 205 192 202 216 171 184 205 204 199 183 193 207 182 159 200 182 109 50 197 183 202 170 192 229 212 165 217 224 199 244 268 247 247 250 246 224 208 201 189 196 204 198 199 201
326 321 301 305 338 346 324 195 175 173 176 207 222 231 213 208 215 216 213 150 139 130 165 205 218 210 219 218 182 136 337 326 311 322 246 201 228 185 185 190 181 192 197 196 212 201 196 223 194 195 205 188 163 192 207 206 192 232 205 162 143 201 192 169 213 193 198 226 222 182 212 225 212 213 248 255 246 252 252 218 187 197 198 204 210 202 198 197
318 309 292 336 19 30 86 148 157 175 201 202 220 229 208 215 226 223 228 208 167 185 218 219 219 229 218 210 231 248 310 303 287 309 253 208 227 184 184 194 191 196 194 191 197 164 178 224 212 193 203 172 158 195 212 204 193 312 174 169 186 221 185 181 198 187 204 223 224 206 209 213 210 202 215 238 249 255 255 231 193 204 206 206 209 203 194 192
325 301 294 43 61 72 102 132 146 207 218 208 219 223 200 218 231 233 225 216 207 213 224 215 207 224 231 235 269 261 256 258 249 264 242 208 239 214 201 204 196 195 192 190 194 172 169 217 219 166 141 178 186 199 212 208 194 189 196 188 185 176 166 197 195 169 210 218 212 223 228 203 185 196 207 223 238 240 245 246 221 211 211 210 208 198 187 188
324 289 236 96 92 87 96 162 199 199 230 249 235 227 235 235 239 249 229 212 219 230 231 215 207 217 231 231 241 231 235 254 242 245 251 235 242 233 209 206 189 160 163 184 201 198 177 196 212 191 171 203 209 196 209 218 207 197 201 194 188 183 167 197 211 184 196 221 201 221 245 218 168 190 205 213 231 234 237 243 238 229 219 212 206 199 191 188
299 270 290 317 257 265 355 253 216 199 236 250 264 254 256 257 249 250 232 204 212 225 224 223 217 216 229 236 237 230 244 262 248 242 249 237 235 242 229 186 163 148 152 188 204 199 174 166 209 215 212 216 212 184 200 230 218 203 203 200 198 198 192 206 217 178 169 220 148 200 255 234 167 189 205 211 227 238 243 247 251 250 233 211 206 202 195 193
283 284 298 306 263 224 249 248 216 218 225 239 276 272 261 266 257 246 227 203 206 208 201 209 213 215 221 224 228 226 225 243 243 234 240 243 237 241 238 171 136 162 188 203 196 183 156 152 206 220 231 234 224 180 137 233 215 209 209 202 200 206 209 215 213 168 186 198 163 196 243 215 169 184 213 231 246 256 262 248 245 255 250 213 205 198 194 195
301 282 290 312 244 197 227 261 241 243 243 254 267 262 260 264 260 253 241 223 208 195 201 209 206 215 221 214 221 222 209 222 238 229 231 239 233 244 248 225 202 208 209 205 184 173 175 185 198 212 225 230 224 208 198 196 203 213 215 205 203 208 210 210 131 160 213 196 184 213 232 195 172 119 207 250 260 258 257 246 238 252 256 226 206 199 194 192
307 271 259 294 235 198 234 305 338 301 296 304 282 262 256 250 247 247 244 244 238 221 220 223 212 221 227 217 226 231 218 225 242 229 221 230 235 258 262 233 219 220 228 230 202 178 187 188 187 203 216 218 217 216 212 197 191 210 216 207 209 210 208 198 142 201 219 187 188 218 226 179 176 223 218 236 246 250 254 249 240 247 250 234 209 200 196 189
318 292 275 298 243 210 239 311 13 347 338 334 304 265 248 245 248 242 237 241 237 228 233 239 232 238 241 237 244 243 231 232 239 238 236 242 244 237 217 250 247 237 246 247 219 190 187 190 190 201 215 218 219 216 197 179 193 207 209 205 206 213 211 199 195 215 200 149 198 218 212 201 202 202 213 227 229 239 249 246 235 237 240 227 208 201 196 189
292 284 308 335 318 284 250 87 24 354 336 324 305 297 276 263 263 240 223 226 227 223 226 228 228 233 232 229 237 241 238 235 236 243 254 257 263 276 288 302 291 270 286 279 229 193 186 211 199 202 212 217 221 216 193 191 208 211 210 208 198 199 205 204 215 213 160 161 222 209 186 216 215 197 205 219 221 230 245 242 232 231 231 218 201 196 196 191
271 275 339 346 305 286 302 326 341 329 309 297 285 287 287 280 281 268 233 250 259 219 210 212 219 227 231 224 225 240 241 238 239 243 248 249 259 275 280 282 267 261 339 327 236 187 219 227 204 204 213 217 223 221 200 196 213 211 212 213 199 193 199 205 219 214 173 203 234 204 171 212 217 204 210 218 216 218 226 228 224 224 216 199 189 194 200 198
291 279 326 344 301 287 298 303 312 307 294 292 275 264 277 281 285 302 307 301 286 216 209 222 215 213 230 254 229 228 223 233 242 235 229 238 241 247 258 262 238 191 19 345 277 171 246 245 205 207 219 221 226 225 205 198 215 216 213 212 202 198 199 202 214 212 199 219 233 208 189 208 213 210 214 217 218 220 226 231 225 224 212 198 196 201 202 200
319 296 316 336 307 290 289 289 298 300 294 288 265 256 284 282 296 341 329 279 273 228 197 222 233 282 346 305 244 234 231 250 275 274 272 263 244 227 236 247 224 155 39 8 4 36 257 264 187 196 223 232 232 228 211 204 216 223 221 214 204 203 203 205 211 207 200 217 224 208 205 214 214 216 220 221 207 207 224 224 221 221 209 196 201 205 202 201
295 283 284 298 294 285 283 291 302 300 292 274 258 296 326 306 337 341 313 251 247 260 253 342 346 351 337 268 257 248 242 283 298 285 281 276 270 267 260 270 295 294 43 41 359 323 277 273 241 169 226 241 228 221 217 210 215 227 229 221 207 201 204 209 210 198 191 203 209 205 214 223 218 219 229 232 200 201 219 223 220 217 203 196 202 204 200 201
295 284 275 275 281 281 287 300 296 279 277 286 328 338 319 307 331 331 308 260 247 257 306 8 355 336 305 275 273 277 297 306 291 279 273 264 261 264 261 260 269 261 149 83 330 306 287 284 305 220 243 258 235 213 209 202 210 229 230 224 215 202 201 211 211 202 198 200 202 207 216 224 217 206 216 227 219 216 222 222 216 209 200 200 204 204 202 200